Location: Les Gen�tes
(46.3104°N, 1.5969°E)
Time: 18:59:09
(UTC+00:00)

BREEZE-M DEB (TANK) - Pass Details

Date: 01 June 2020
Orbit: 559 x 17159 km, 49.5° (Epoch: 11 July)

Event Time Altitude Azimuth Distance (km) Brightness Sun altitude
Rises 21:43:34 0° 275° (W) 3,965 7.7 -15.6°
Reaches altitude 10° 21:46:51 10° 280° (W) 2,345 6.6 -15.9°
Maximum altitude 21:51:04 55° 360° (N) 691 3.6 -16.2°
Drops below altitude 10° 21:54:35 10° 80° (E) 1,952 5.4 -16.5°
Sets 21:57:02 0° 85° (E) 3,182 6.5 -16.7°
